• Processing (Info)

  • MPEC 2023-G96 : 2023 GV1

    The following Minor Planet Electronic Circular may be linked-to from your own Web pages, but must not otherwise be redistributed electronically.

    A form allowing access to any MPEC is at the bottom of this page.


    Read MPEC 2023-G95 Read MPEC 2023-H01


    M.P.E.C. 2023-G96                                Issued 2023 April 15, 21:31 UT
    
         The Minor Planet Electronic Circulars contain information on unusual
             minor planets, routine data on comets and natural satellites,
             and occasional editorial announcements.  They are published
        on behalf of Division F of the International Astronomical Union by the
              Minor Planet Center, Smithsonian Astrophysical Observatory,
                              Cambridge, MA 02138, U.S.A.
    			  
                 Prepared using the Tamkin Foundation Computer Network
    
                                  MPC@CFA.HARVARD.EDU
                URL https://www.minorplanetcenter.net/    ISSN 1523-6714
    
                                    2023 GV1                                 
    
    
    Observations:
         K23G01V*1C2023 04 14.25185010 52 16.982+18 28 35.40         20.65GVEG096G96
         K23G01V 1C2023 04 14.25862210 52 20.356+18 28 57.79         20.63GVEG096G96
         K23G01V 1C2023 04 14.26429810 52 23.160+18 29 16.22         20.44GVEG096G96
         K23G01V 1C2023 04 14.26997510 52 26.047+18 29 35.09         21.26GVEG096G96
         K23G01V KC2023 04 14.36351310 53 14.298+18 34 32.16         20.72GVEG096I52
         K23G01V KC2023 04 14.36513610 53 15.184+18 34 37.38         20.56GVEG096I52
         K23G01V KC2023 04 14.36676010 53 16.033+18 34 42.17         20.78GVEG096I52
         K23G01V KC2023 04 14.36838310 53 16.890+18 34 47.35         20.75GVEG096I52
         K23G01V KC2023 04 15.10469911 00 34.36 +19 16 00.1                uEG096H21
         K23G01V KC2023 04 15.10749711 00 35.82 +19 16 09.4                uEG096H21
         K23G01V KC2023 04 15.11346411 00 38.92 +19 16 29.6          21.2 VuEG096H21
         K23G01V  C2023 04 15.26082811 02 01.256+19 24 52.80         21.2 GVEG096654
         K23G01V  C2023 04 15.28847311 02 15.721+19 26 21.15         20.8 GVEG096654
         K23G01V  C2023 04 15.32674811 02 36.010+19 28 21.02         21.1 GVEG096654
         K23G01V KC2023 04 15.36354811 02 54.902+19 30 14.36         20.76GVEG096I52
         K23G01V KC2023 04 15.36552911 02 55.986+19 30 20.27         20.67GVEG096I52
         K23G01V KC2023 04 15.36751611 02 57.073+19 30 26.35         20.71GVEG096I52
         K23G01V KC2023 04 15.36948711 02 58.218+19 30 32.44         20.52GVEG096I52
    
    Observer details:
    654 Table Mountain Observatory, Wrightwood-PHMC.  Observers N. Evans, P. Choi,
        N. Saini, C. Zhai, R. Trahan, M. Shao.  1.0-m Reflector + CCD.
    G96 Mt. Lemmon Survey.  Observer J. K. Hogan.  Measurers E. J. Christensen, D.
        Fay, J. B. Fazekas, D. C. Fuls, A. R. Gibbs, A. D. Grauer, H. Groeller, J.
        K. Hogan, R. A. Kowalski, S. M. Larson, G. J. Leonard, D. Rankin, R. L.
        Seaman, A. Serrano, F. C. Shelly, K. W. Wierzchos.  1.5-m reflector + 10K
        CCD.
    H21 Astronomical Research Observatory, Westfield.  Observer R. Holmes.
        Measurers T. Linder, R. Holmes, L. Horn.  0.76-m f/3.0 astrograph + CCD.
    I52 Steward Observatory, Mt. Lemmon Station.  Observer J. B. Fazekas.
        Measurers E. J. Christensen, D. Fay, J. B. Fazekas, D. C. Fuls, A. R.
        Gibbs, A. D. Grauer, H. Groeller, J. K. Hogan, R. A. Kowalski, S. M.
        Larson, G. J. Leonard, D. Rankin, R. L. Seaman, A. Serrano, F. C. Shelly,
        K. W. Wierzchos.  1.0-m prime focus + CCD.
    
    Orbital elements:
    2023 GV1                                                 Earth MOID = 0.0335 AU
    Epoch 2023 Feb. 25.0 TT = JDT 2460000.5                 Veres                   
    M 330.90322              (2000.0)            P               Q                  
    n   0.64044188     Peri.    3.81099     -0.94565775     +0.32466078             
    a   1.3329573      Node   195.17182     -0.30012834     -0.89289111             
    e   0.2238537      Incl.    3.96084     -0.12511758     -0.31199496             
    P   1.54           H   25.93          G   0.15           U   8                  
    Residuals in seconds of arc
    230414 G96  0.2+  0.1-    230414 I52  0.0   0.2-    230415 654  0.1+  0.1+
    230414 G96  0.0   0.1+    230414 I52  0.1-  0.0     230415 654  0.0   0.0
    230414 G96  0.5-  0.1-    230415 H21  0.6-  0.1+    230415 I52  0.0   0.0
    230414 G96  0.0   0.2+    230415 H21  0.7-  0.0     230415 I52  0.2-  0.1-
    230414 I52  0.1-  0.1-    230415 H21  0.8-  0.1+    230415 I52  0.4-  0.0
    230414 I52  0.3+  0.1+    230415 654  0.1+  0.1+    230415 I52  0.4+  0.2+
    
    Ephemeris:
    2023 GV1                 a,e,i = 1.33, 0.22, 4                   q = 1.0346
    Date    TT    R. A. (2000) Decl.     Delta      r    Elong.  Phase     V
    2023 03 16    08 42 44.8 -02 35 45   0.08380 1.0556   135.2    41.6    22.3
    ...
    2023 03 31    09 18 15.3 +05 45 51   0.06065 1.0386   129.8    47.6    21.7
    ...
    2023 04 08    10 01 24.0 +12 29 53   0.05112 1.0349   130.5    47.4    21.3
    ...
    2023 04 14    10 49 58.3 +18 15 04   0.04644 1.0347   132.6    45.5    21.1
    2023 04 15    10 59 30.4 +19 11 16   0.04594 1.0349   133.0    45.1    21.0
    2023 04 16    11 09 25.3 +20 05 50   0.04554 1.0351   133.5    44.7    21.0
    ...
    2023 04 22    12 14 47.7 +24 29 18   0.04522 1.0379   135.9    42.3    20.9
    ...
    2023 04 30    13 41 36.8 +26 09 15   0.05043 1.0450   137.9    40.3    21.1
    ...
    2023 05 15    15 24 52.0 +21 01 57   0.07308 1.0679   140.3    37.2    21.9
    
    M. P. C. Staff               (C) Copyright 2023 MPC           M.P.E.C. 2023-G96
    


    Read MPEC 2023-G95 Read MPEC 2023-H01


    MPEC number:

    Enter an MPEC number in one of the following forms:

    • 1997-B01 (the full form)
    • J97B01 (the packed version of the full form)
    • B01 (the abbreviated form)